Temperature
-1 -1 -1 -0 -0 -0 -0 -0 0 0 1 1 1 2 2 2 2 2 2 2 2 2 2 2 2 2 2 2 2 2 2 2 1 2 2 2 2 2 2 2 2 2 2
-2 -1 -1 -1 -1 -1 -1 -1 -0 -0 0 0 1 1 1 1 1 1 2 2 2 2 2 1 1 1 1 1 1 1 1 1 1 1 1 1 1 1 1 1 1 1 1
-2 -2 -2 -2 -1 -1 -1 -1 -1 -1 -1 -0 -0 0 0 1 1 1 1 1 1 1 1 1 1 1 1 1 1 1 1 0 0 0 0 0 0 0 0 0 1 1 1
-3 -3 -2 -2 -2 -2 -2 -2 -2 -2 -1 -1 -1 -1 -0 -0 0 0 0 0 0 0 0 0 0 0 0 0 0 0 -0 -0 -0 -0 -0 -0 -0 -0 -1 -0 0 0 0
-3 -3 -3 -3 -3 -3 -3 -2 -2 -2 -2 -2 -2 -1 -1 -1 -1 -1 -0 -0 -0 -0 -0 -0 -0 -0 -0 -1 -0 -0 -1 -1 -1 -1 -1 -1 -1 -1 -1 -1 -1 -1 -1
-4 -4 -4 -3 -3 -3 -3 -3 -3 -3 -3 -3 -3 -2 -2 -2 -2 -1 -1 -1 -1 -1 -1 -1 -1 -1 -1 -1 -1 -1 -1 -2 -1 -1 -2 -2 -2 -2 -2 -2 -2 -2 -2
-5 -4 -4 -4 -4 -4 -4 -4 -3 -3 -3 -3 -3 -3 -3 -2 -2 -2 -2 -2 -2 -2 -2 -2 -2 -2 -2 -2 -2 -2 -2 -2 -2 -2 -2 -2 -2 -3 -3 -3 -3 -4 -4
-5 -5 -5 -5 -5 -5 -4 -4 -4 -4 -4 -4 -4 -4 -4 -3 -3 -3 -3 -3 -3 -3 -3 -3 -3 -3 -3 -3 -3 -3 -3 -3 -3 -3 -3 -3 -3 -4 -4 -4 -4 -4 -4
-5 -5 -5 -5 -5 -5 -5 -5 -5 -5 -5 -5 -5 -5 -4 -4 -4 -4 -4 -4 -4 -4 -4 -4 -4 -4 -3 -4 -4 -4 -4 -4 -4 -4 -4 -4 -4 -5 -5 -5 -5 -5 -5
-6 -6 -6 -6 -6 -6 -6 -6 -5 -6 -5 -6 -5 -5 -5 -5 -5 -5 -5 -5 -5 -4 -4 -4 -4 -4 -4 -4 -4 -4 -4 -4 -5 -5 -5 -5 -5 -5 -5 -5 -5 -6 -6
-7 -7 -7 -6 -6 -6 -6 -6 -6 -6 -6 -6 -6 -6 -6 -5 -5 -5 -5 -5 -5 -5 -5 -5 -5 -5 -5 -5 -5 -5 -5 -5 -5 -5 -5 -6 -6 -6 -6 -6 -6 -6 -7
-7 -7 -7 -7 -7 -7 -7 -7 -7 -7 -7 -7 -7 -7 -7 -6 -6 -6 -6 -6 -6 -6 -6 -6 -6 -6 -6 -6 -6 -6 -6 -6 -6 -6 -6 -6 -6 -7 -7 -7 -7 -7 -7
-8 -8 -8 -8 -8 -8 -8 -8 -8 -8 -8 -8 -8 -8 -8 -7 -7 -7 -7 -7 -7 -7 -7 -7 -7 -7 -7 -7 -7 -7 -7 -7 -7 -7 -7 -7 -7 -7 -7 -7 -8 -8 -8
-8 -9 -9 -9 -9 -9 -9 -9 -8 -8 -8 -8 -8 -8 -8 -8 -8 -8 -8 -8 -8 -8 -7 -7 -7 -7 -7 -7 -7 -7 -7 -7 -8 -8 -8 -8 -8 -8 -8 -8 -8 -8 -8
-9 -9 -9 -9 -9 -9 -9 -9 -9 -9 -9 -9 -9 -9 -9 -9 -8 -8 -8 -8 -8 -8 -8 -8 -8 -8 -8 -8 -8 -8 -8 -8 -8 -9 -9 -9 -9 -9 -9 -9 -9 -9 -9
-10 -10 -10 -10 -10 -10 -10 -10 -10 -10 -10 -10 -10 -9 -9 -9 -9 -9 -9 -9 -9 -9 -9 -9 -9 -9 -9 -9 -9 -9 -9 -9 -9 -9 -9 -9 -9 -10 -10 -10 -10 -10 -10
-11 -11 -11 -11 -11 -11 -11 -11 -11 -10 -10 -10 -10 -10 -10 -10 -10 -10 -9 -9 -9 -9 -9 -9 -9 -9 -9 -9 -9 -9 -9 -9 -10 -10 -10 -10 -10 -10 -10 -10 -10 -11 -11
-11 -11 -11 -11 -11 -11 -11 -11 -11 -11 -11 -11 -11 -11 -11 -11 -10 -10 -10 -10 -10 -10 -10 -10 -10 -10 -10 -10 -10 -10 -10 -10 -10 -10 -10 -10 -11 -11 -11 -11 -11 -11 -11
-12 -12 -12 -12 -12 -12 -12 -12 -12 -12 -12 -12 -11 -11 -11 -11 -11 -11 -11 -11 -11 -11 -11 -10 -10 -10 -10 -10 -10 -10 -11 -11 -11 -11 -11 -11 -11 -11 -11 -12 -12 -12 -12
-12 -12 -12 -12 -12 -12 -12 -12 -12 -12 -12 -12 -12 -12 -12 -12 -11 -11 -11 -11 -11 -11 -11 -11 -11 -11 -11 -11 -11 -11 -11 -11 -11 -11 -11 -12 -12 -12 -12 -12 -12 -12 -12
-13 -13 -13 -13 -13 -13 -13 -13 -13 -13 -13 -13 -13 -13 -12 -12 -12 -12 -12 -12 -12 -12 -12 -12 -12 -11 -11 -11 -11 -11 -11 -12 -12 -12 -12 -12 -12 -12 -12 -13 -13 -13 -13
-13 -13 -13 -13 -13 -13 -13 -13 -13 -13 -13 -13 -13 -13 -13 -13 -13 -13 -13 -13 -12 -12 -12 -12 -12 -12 -12 -12 -12 -12 -12 -12 -12 -12 -12 -12 -13 -13 -13 -13 -13 -13 -13
-13 -13 -13 -13 -13 -14 -14 -14 -14 -14 -14 -13 -13 -13 -13 -13 -13 -13 -13 -13 -13 -13 -13 -13 -12 -12 -12 -12 -12 -12 -12 -12 -12 -13 -13 -13 -13 -13 -13 -13 -13 -13 -13
-14 -14 -14 -14 -14 -14 -14 -14 -14 -14 -14 -14 -14 -14 -14 -14 -14 -14 -13 -13 -13 -13 -13 -13 -13 -13 -13 -13 -12 -13 -13 -13 -13 -13 -13 -13 -13 -13 -13 -13 -13 -13 -13
-14 -14 -14 -14 -14 -14 -14 -14 -14 -14 -14 -14 -14 -14 -14 -14 -14 -14 -14 -14 -14 -14 -13 -13 -13 -13 -13 -13 -13 -13 -13 -13 -13 -13 -13 -13 -13 -13 -13 -13 -13 -13 -13
-15 -15 -15 -15 -15 -15 -15 -15 -15 -15 -15 -15 -15 -15 -15 -14 -14 -14 -14 -14 -14 -14 -14 -13 -13 -13 -13 -13 -13 -13 -13 -13 -13 -13 -14 -14 -14 -14 -14 -14 -14 -14 -14
Wind_Speed
3 3 2 2 2 3 3 3 3 3 4 4 4 4 4 4 4 4 4 5 5 4 4 4 4 3 3 2 2 2 2 2 2 2 1 1 1 2 4 5 5 6 6
2 2 2 2 3 3 3 3 2 3 3 3 4 4 5 5 4 5 6 5 6 6 5 5 5 4 3 3 3 3 2 2 2 3 2 1 2 2 3 3 5 6 6
1 1 2 2 3 3 3 3 2 2 3 3 3 4 5 5 5 5 6 6 6 6 6 6 6 5 5 4 4 3 3 2 1 2 2 2 2 2 2 3 4 5 6
1 1 2 3 3 3 3 3 3 3 3 3 3 3 4 4 5 5 5 6 5 5 5 6 6 7 7 6 5 4 3 2 2 2 2 2 1 1 1 2 3 3 4
1 2 2 2 2 2 2 2 3 3 3 3 3 3 3 3 4 5 5 5 5 5 5 5 6 7 8 7 6 5 5 4 3 3 2 2 2 2 2 2 3 4 4
2 2 2 2 2 2 2 3 3 3 3 3 3 3 4 3 4 5 4 4 5 5 5 5 5 6 8 9 9 8 7 6 5 4 3 4 4 3 2 2 2 3 4
2 2 1 2 2 3 3 3 3 3 3 3 3 3 4 4 6 6 5 4 4 4 5 4 4 5 5 5 5 6 6 7 8 6 6 6 5 4 3 3 3 4 5
2 2 2 1 2 2 2 3 3 2 3 3 3 4 3 4 6 6 5 4 4 4 5 5 5 5 6 6 5 5 4 4 6 5 6 6 6 5 5 5 5 4 4
2 3 2 2 2 2 3 3 2 2 2 2 3 3 4 4 6 6 5 4 4 5 5 5 6 6 8 8 6 5 4 3 4 5 5 6 7 7 6 3 3 4 5
3 3 2 2 2 3 3 2 2 2 2 2 2 3 3 4 6 6 6 4 4 4 4 5 7 7 9 9 6 6 6 5 3 2 2 4 5 6 7 5 4 5 4
3 2 2 2 2 2 2 2 1 1 1 2 2 2 3 4 5 7 7 4 4 4 4 4 4 8 8 9 7 6 7 5 4 3 2 2 3 3 4 4 4 4 5
3 2 2 2 1 1 2 2 2 2 2 2 2 2 2 3 4 6 8 7 5 4 4 3 4 7 8 8 6 6 7 5 3 3 3 3 3 3 3 3 4 5 6
2 2 2 2 1 1 1 2 2 2 2 2 2 2 2 2 3 5 6 6 6 3 3 5 5 7 6 5 5 6 5 3 3 3 4 3 3 3 2 2 3 4 5
2 2 1 1 1 1 1 1 2 2 2 2 3 2 2 2 2 2 3 3 4 3 2 4 5 5 4 3 3 3 2 3 3 3 3 2 2 2 2 2 2 2 3
2 1 1 1 1 1 1 1 2 2 2 3 2 2 3 3 4 4 3 3 2 3 2 2 2 2 3 2 2 2 2 2 2 2 2 2 2 3 3 2 2 3 4
1 1 1 0 0 0 0 1 2 2 3 3 3 4 4 4 5 6 6 5 5 5 3 3 3 3 3 3 3 3 2 3 3 3 3 3 3 3 3 3 3 3 4
2 1 1 0 0 0 0 0 1 2 3 4 4 4 4 4 4 5 5 5 5 4 2 3 3 3 3 3 3 3 3 3 3 3 3 3 3 4 4 4 4 4 5
1 2 1 1 1 1 1 1 1 1 2 3 4 4 4 3 3 3 3 2 2 2 2 2 2 2 2 3 3 3 3 2 3 3 3 3 4 4 4 5 5 5 5
1 1 1 1 1 1 1 1 1 1 2 2 2 3 4 4 4 3 2 1 2 2 2 2 2 2 2 2 2 2 2 3 3 3 3 3 3 4 4 5 5 7 7
1 2 2 1 1 1 1 1 1 1 2 2 2 2 2 2 1 2 2 2 2 2 2 2 2 2 2 2 2 2 3 3 3 3 4 4 4 4 5 5 5 5 6
1 2 3 2 1 1 1 1 1 1 2 2 2 3 3 1 2 2 2 2 2 2 2 2 2 3 3 3 3 3 4 3 4 4 4 4 4 4 5 5 6 6 6
1 1 1 1 1 1 1 1 1 2 2 2 2 3 5 2 2 2 3 3 3 3 3 3 3 3 3 3 3 4 4 4 4 4 4 4 4 5 5 6 6 6 6
2 2 1 2 2 2 2 1 2 2 2 2 3 3 3 3 3 3 3 3 3 3 4 4 4 4 5 5 6 6 5 6 6 5 5 5 5 5 6 6 7 7 7
2 2 2 2 2 1 2 2 2 2 2 3 3 3 3 3 3 4 4 4 4 4 5 5 5 6 7 7 7 8 9 9 9 8 8 7 7 6 6 7 7 8 8
2 2 2 2 2 2 2 2 2 2 3 3 3 3 3 4 4 4 4 4 4 4 6 7 7 7 8 9 9 9 10 11 11 10 9 8 7 7 7 8 8 8 8
2 2 2 2 2 2 3 3 3 3 3 4 4 4 4 4 4 4 4 4 4 5 6 7 8 9 10 10 10 11 11 12 12 12 10 8 7 7 7 7 8 8 8
Wind_Direction
199 205 209 196 167 155 159 169 171 165 159 173 176 170 169 171 170 167 175 171 171 173 176 176 179 171 169 170 165 172 175 164 215 260 296 320 312 312 302 299 295 291 289
211 201 207 196 173 171 174 175 177 174 169 176 175 180 184 181 177 179 183 181 183 185 187 183 185 183 177 178 178 188 192 183 199 237 263 263 275 281 290 294 304 302 293
236 208 203 197 184 187 187 182 178 175 173 174 175 187 191 192 189 189 185 186 191 192 193 191 190 187 192 192 192 194 193 193 187 214 244 252 263 280 300 304 309 317 314
289 228 215 209 197 195 191 185 183 180 176 175 181 188 195 202 197 187 185 187 193 198 201 199 198 196 198 196 199 196 191 184 182 195 224 235 257 276 280 300 312 315 313
303 259 241 220 203 191 193 197 187 185 189 181 183 188 191 202 201 192 190 193 193 200 205 206 206 205 206 204 206 195 190 193 195 206 219 241 254 262 264 282 298 314 309
290 263 249 222 203 198 200 197 188 185 181 179 187 188 195 212 198 199 201 200 202 203 209 209 208 206 208 214 218 213 204 202 204 214 229 231 240 252 266 279 293 308 299
303 291 276 232 201 194 198 190 187 188 183 190 198 196 205 206 204 210 212 207 205 204 205 204 215 215 207 197 210 217 221 223 220 214 221 227 233 231 232 254 261 274 279
304 288 271 244 216 196 188 195 197 194 193 197 205 206 209 212 210 215 215 217 209 208 210 210 208 207 208 198 198 203 213 226 229 222 214 219 226 226 222 237 248 273 280
294 284 265 240 224 210 207 207 201 194 200 208 208 205 212 214 215 219 218 210 214 214 216 217 213 210 215 214 206 202 216 234 247 240 239 244 250 252 250 237 241 263 281
284 280 277 241 222 221 217 215 217 213 213 213 220 215 216 214 218 219 217 209 215 213 210 216 218 219 219 216 208 203 213 222 215 227 241 252 254 252 251 237 226 241 266
294 292 287 268 240 227 217 212 201 211 204 207 217 224 220 228 226 222 220 213 210 212 219 217 219 224 225 224 225 215 221 220 202 208 223 224 230 236 241 245 239 233 246
302 299 292 281 264 245 209 206 196 191 197 206 212 223 223 231 233 229 227 231 224 213 220 222 224 226 233 234 235 230 227 226 204 207 221 231 233 234 231 244 251 258 260
308 303 298 308 292 267 222 203 195 194 200 215 215 224 232 228 224 231 232 230 231 230 228 230 234 232 237 235 236 231 225 213 205 214 225 235 235 224 231 249 260 265 276
305 302 299 287 291 283 257 224 203 202 208 223 225 230 238 239 226 223 218 228 229 239 236 236 236 232 235 233 226 218 209 205 210 218 224 226 216 216 234 238 256 258 275
304 298 299 300 264 265 284 261 248 233 234 229 228 231 229 234 245 243 229 220 204 211 206 206 207 202 202 199 198 200 196 200 218 211 216 228 237 244 247 239 250 256 262
294 295 282 253 273 305 325 330 325 312 305 289 278 268 264 263 258 250 241 240 234 222 214 203 206 205 206 203 206 208 209 209 210 214 219 229 239 245 254 254 253 255 261
269 273 280 292 243 235 253 276 315 334 333 325 311 294 279 270 262 252 246 237 235 226 217 209 213 214 214 210 212 216 220 216 213 218 225 231 240 247 251 255 257 260 265
287 287 289 249 244 244 243 251 251 275 306 311 313 310 307 299 292 284 269 250 234 238 225 220 222 220 218 217 216 218 219 216 219 225 229 231 235 245 253 256 257 258 265
293 282 267 249 247 252 261 271 271 275 282 294 312 316 318 318 318 313 306 252 226 232 239 242 242 234 227 225 221 220 221 226 230 233 238 239 239 244 253 258 261 265 270
289 295 288 259 245 241 243 247 259 273 283 287 294 301 309 320 312 302 291 268 247 244 245 247 250 245 239 236 232 226 228 232 234 239 242 243 244 245 250 257 260 263 266
287 289 298 296 272 258 245 242 252 262 271 281 287 290 297 281 268 269 267 264 255 254 256 256 253 245 243 242 239 236 236 242 242 241 244 246 246 250 253 256 259 260 263
290 280 279 275 274 270 261 249 256 262 269 275 287 294 297 297 277 268 264 266 263 264 262 258 254 248 243 239 237 238 241 243 244 245 248 251 251 252 253 255 258 260 260
281 276 278 277 276 281 288 271 259 259 264 268 274 282 280 275 275 273 270 270 273 271 270 264 257 257 257 252 248 241 238 242 242 239 246 251 254 255 256 256 257 260 260
287 278 272 274 276 272 279 283 275 273 273 272 275 276 272 267 271 273 270 270 271 274 274 270 264 260 259 261 259 255 251 251 250 246 239 241 250 255 255 257 258 258 259
286 287 280 275 274 271 272 273 272 273 275 277 277 278 277 275 274 274 271 271 272 272 275 274 269 264 260 261 262 261 261 262 261 256 245 239 245 250 251 253 256 260 262
282 283 281 274 269 265 265 267 269 270 271 273 273 271 271 271 272 272 272 270 270 274 277 277 272 269 268 267 265 266 267 266 265 264 254 240 240 249 250 252 254 257 261
Height
1465 1467 1468 1469 1471 1473 1475 1478 1480 1482 1484 1487 1489 1492 1495 1497 1499 1501 1504 1506 1508 1511 1513 1516 1518 1520 1522 1524 1525 1527 1528 1529 1529 1530 1532 1533 1534 1534 1535 1535 1535 1534 1534
1462 1463 1464 1466 1468 1470 1472 1474 1476 1478 1480 1483 1485 1488 1490 1492 1495 1497 1499 1501 1504 1506 1509 1511 1513 1515 1517 1519 1520 1522 1523 1524 1525 1525 1526 1528 1529 1529 1529 1530 1530 1529 1529
1460 1461 1462 1463 1465 1466 1468 1471 1472 1474 1476 1478 1481 1483 1485 1488 1490 1492 1494 1497 1499 1501 1504 1506 1508 1510 1512 1514 1516 1517 1518 1520 1521 1522 1522 1523 1524 1524 1524 1525 1525 1524 1524
1457 1458 1459 1460 1461 1463 1465 1467 1469 1470 1472 1474 1477 1479 1481 1483 1485 1487 1490 1492 1494 1496 1498 1501 1503 1505 1507 1509 1511 1512 1513 1514 1516 1517 1517 1518 1519 1519 1519 1519 1518 1519 1518
1454 1454 1455 1456 1458 1459 1461 1463 1465 1467 1468 1470 1472 1474 1476 1478 1480 1482 1485 1487 1489 1491 1493 1495 1498 1500 1502 1504 1505 1506 1507 1509 1510 1511 1512 1513 1513 1514 1514 1514 1513 1513 1513
1452 1451 1452 1454 1455 1456 1458 1460 1461 1463 1464 1466 1467 1469 1471 1474 1476 1478 1480 1482 1483 1485 1487 1489 1492 1494 1496 1498 1499 1501 1502 1504 1504 1505 1506 1507 1507 1509 1509 1509 1509 1508 1507
1449 1449 1450 1451 1451 1453 1455 1456 1458 1459 1460 1461 1463 1465 1467 1469 1471 1473 1475 1477 1478 1479 1482 1484 1486 1488 1490 1492 1493 1495 1496 1498 1500 1501 1501 1501 1502 1503 1504 1504 1504 1503 1502
1447 1447 1447 1448 1448 1450 1451 1452 1453 1455 1456 1458 1459 1461 1463 1464 1467 1468 1470 1472 1473 1475 1476 1478 1480 1482 1484 1486 1487 1489 1490 1492 1494 1495 1496 1496 1498 1499 1499 1499 1499 1498 1498
1444 1444 1445 1445 1446 1447 1448 1449 1450 1451 1453 1454 1456 1457 1458 1460 1462 1463 1465 1467 1468 1469 1471 1473 1476 1477 1479 1481 1482 1483 1484 1486 1488 1489 1490 1491 1492 1493 1494 1494 1493 1493 1492
1442 1441 1442 1442 1443 1443 1444 1446 1447 1448 1449 1451 1452 1453 1454 1456 1457 1459 1460 1462 1463 1464 1466 1468 1471 1472 1474 1475 1477 1478 1479 1480 1482 1483 1485 1485 1486 1487 1488 1488 1488 1488 1487
1439 1439 1439 1439 1440 1441 1442 1443 1444 1445 1446 1447 1448 1449 1451 1452 1453 1454 1456 1457 1458 1460 1461 1463 1465 1467 1469 1470 1471 1473 1473 1475 1476 1477 1478 1479 1480 1481 1482 1482 1483 1483 1482
1436 1436 1436 1436 1437 1438 1439 1440 1441 1442 1443 1444 1445 1446 1447 1448 1449 1450 1451 1453 1454 1456 1457 1458 1460 1462 1463 1465 1466 1467 1469 1470 1471 1472 1472 1473 1474 1475 1476 1476 1477 1477 1477
1434 1433 1433 1433 1434 1435 1436 1437 1438 1439 1439 1440 1441 1442 1443 1444 1445 1446 1447 1449 1450 1451 1452 1454 1455 1457 1459 1460 1461 1462 1464 1465 1465 1466 1467 1468 1469 1469 1470 1471 1471 1471 1471
1431 1431 1431 1431 1432 1432 1433 1434 1434 1435 1436 1437 1438 1438 1439 1440 1441 1442 1443 1444 1446 1447 1448 1449 1451 1453 1454 1455 1457 1458 1458 1460 1461 1461 1462 1463 1464 1464 1465 1465 1465 1465 1464
1429 1429 1429 1429 1430 1430 1431 1431 1432 1433 1433 1434 1434 1435 1436 1436 1437 1438 1439 1440 1441 1443 1444 1445 1447 1448 1449 1450 1452 1453 1454 1455 1456 1457 1458 1458 1459 1459 1459 1460 1460 1460 1459
1427 1427 1427 1427 1427 1428 1428 1429 1429 1430 1431 1431 1432 1433 1433 1434 1434 1435 1436 1437 1438 1440 1441 1441 1442 1443 1444 1446 1447 1448 1449 1450 1451 1452 1453 1454 1454 1454 1454 1455 1455 1455 1454
1425 1425 1425 1425 1425 1425 1426 1426 1426 1427 1428 1428 1428 1429 1430 1430 1431 1432 1432 1434 1435 1436 1437 1437 1438 1439 1440 1441 1443 1444 1445 1446 1447 1448 1448 1449 1449 1449 1449 1449 1449 1449 1449
1423 1423 1423 1423 1423 1424 1424 1424 1424 1424 1424 1425 1426 1426 1426 1427 1428 1428 1429 1430 1430 1431 1432 1433 1434 1435 1436 1437 1438 1439 1440 1441 1442 1443 1443 1444 1444 1444 1444 1444 1444 1444 1443
1421 1421 1421 1421 1421 1422 1422 1422 1422 1422 1422 1422 1422 1423 1424 1424 1424 1425 1425 1426 1426 1427 1428 1429 1430 1431 1432 1433 1434 1435 1436 1436 1437 1438 1438 1439 1439 1439 1439 1439 1439 1438 1438
1420 1420 1420 1420 1420 1420 1420 1420 1420 1420 1420 1420 1420 1420 1421 1421 1421 1421 1422 1422 1422 1423 1424 1425 1426 1427 1428 1428 1429 1430 1431 1432 1432 1433 1433 1433 1434 1434 1434 1434 1433 1433 1432
1418 1418 1418 1418 1418 1418 1418 1418 1418 1418 1418 1418 1418 1418 1419 1418 1418 1418 1418 1419 1419 1420 1420 1421 1422 1423 1423 1424 1425 1426 1426 1427 1427 1428 1428 1428 1428 1428 1428 1428 1427 1427 1426
1416 1416 1416 1416 1416 1416 1416 1416 1416 1416 1416 1416 1416 1416 1416 1416 1416 1415 1415 1416 1416 1416 1417 1418 1418 1418 1419 1419 1420 1421 1421 1421 1422 1422 1422 1423 1423 1422 1422 1422 1421 1421 1420
1414 1414 1414 1414 1414 1414 1414 1414 1414 1414 1414 1414 1413 1413 1413 1413 1413 1412 1412 1412 1412 1413 1413 1413 1414 1414 1414 1415 1415 1416 1416 1416 1416 1417 1417 1417 1417 1416 1416 1415 1415 1414 1413
1412 1412 1412 1412 1412 1411 1411 1411 1411 1411 1411 1411 1410 1410 1410 1409 1409 1409 1409 1409 1409 1409 1409 1409 1409 1409 1409 1409 1410 1410 1410 1410 1411 1411 1411 1410 1410 1410 1409 1409 1408 1408 1407
1410 1409 1409 1409 1409 1409 1408 1408 1408 1408 1407 1407 1407 1406 1406 1406 1405 1405 1405 1405 1404 1404 1404 1404 1404 1404 1404 1404 1404 1404 1404 1404 1404 1404 1405 1404 1404 1403 1403 1402 1402 1401 1400
1407 1407 1406 1406 1406 1405 1405 1405 1404 1404 1404 1403 1403 1403 1402 1402 1401 1401 1401 1400 1400 1400 1399 1399 1399 1399 1398 1398 1398 1398 1398 1398 1398 1399 1399 1398 1398 1397 1397 1396 1395 1395 1394